sat.trackr.live / text

‹ back to catalog

KUIPER-00073

NORAD 64820 · 2025-151E

PAYLOAD ACTIVE UNKNOWN

§ Identity

Operator
Country
US
Launch date
2025-07-16
Launch site
AFETR
Launch vehicle
Mass (kg)
RCS (m²)

External: N2YO · Heavens-Above · Gunter

§ Orbital elements

Epoch: 2026-05-25T04:49:39.551808Z

Period
97.30 min
Inclination
51.9000°
Eccentricity
0.0000734
Mean motion
14.79935953 rev/d
Perigee alt
629.0 km
Apogee alt
630.0 km
Semi-major
7,007.7 km
B*
1.7355e-4
RAAN
324.7429°
Arg perigee
120.8221°
Mean anomaly
239.2813°
Rev number
4,778

§ Raw data

KUIPER-000731 64820U 25151E   26145.20115222  .00001102  00000+0  17355-3 0  99942 64820  51.9000 324.7429 0000734 120.8221 239.2813 14.79935953 47787

JSON: /api/v1/satellites/64820 · /tle

For live sub-satellite position, see the globe view (requires WebGL).

§ Visibility from observer

Set your observer location to see the next 7 days of passes ≥ 10°. The values pass through the URL so the page stays shareable.

No JS? Fill the form by hand. The geolocation button needs JavaScript.